SCP
0 0 0 0 0 0 0 0 0 0 0 0 0 0 0 -0 0 0 0 0 -0 0 0 0 0 0 0 0 0 0 0 0 0 0 0 0 0 0 0 0 0 0 0 0
0 0 0 0 0 0 0 0 0 0 0 0 0 0 0 0 -0 -0 -0 0 -0 0 0 0 0 0 0 0 0 0 0 0 0 0 0 0 0 0 0 0 0 0 0 0
0 0 0 0 0 0 0 0 0 0 0 0 -0 -0 -0 0 -0 -0 -0 -0 -0 -0 0 0 0 0 0 0 0 0 0 0 0 0 0 0 0 0 0 0 0 0 0 -0
0 0 0 0 0 0 0 0 0 0 -0 -0 -0 0 0 0 0 -0 -0 -0 -0 -0 -0 0 0 0 0 0 0 0 0 0 0 0 0 0 0 0 0 0 0 0 -0 -0
0 0 0 0 0 0 0 -0 0 0 -0 0 -0 -0 -0 0 0 0 -0 -0 -0 -0 0 -0 0 0 0 0 0 0 0 0 0 0 0 0 0 0 0 0 0 0 0 -0
0 0 0 0 0 0 0 -0 0 -0 -0 -0 -0 -0 0 0 0 0 0 -0 -0 -0 -0 0 0 0 0 0 0 0 0 0 0 0 0 0 0 0 0 0 0 0 0 -0
0 0 0 0 0 0 0 -0 -0 -0 -0 -0 0 -0 -0 -0 0 -0 0 0 -0 -0 -0 0 0 0 0 0 0 0 0 0 0 0 0 0 0 0 0 0 0 0 0 0
0 0 0 0 0 0 0 -0 -0 -0 -0 -0 0 -0 0 -0 0 -0 0 -0 -0 -0 0 0 0 0 0 0 0 0 0 0 0 0 0 0 0 0 0 0 0 0 0 0
0 0 0 0 -0 0 -0 -0 -0 0 -0 0 -0 -0 0 -0 -0 -0 0 -0 -0 0 0 0 0 0 0 0 0 0 0 0 0 0 0 0 0 0 0 0 0 0 0 0
0 0 0 -0 0 0 -0 -0 0 -0 -0 0 0 0 -0 -0 -0 -0 0 0 -0 0 0 0 0 0 0 0 0 0 0 0 0 0 0 0 0 0 0 0 0 0 0 0
0 0 0 -0 0 0 0 0 0 0 0 0 -0 -0 -0 -0 -0 -0 -0 0 -0 0 0 0 0 0 0 0 0 0 0 0 0 0 0 0 0 0 0 0 -0 0 0 0
0 0 0 0 0 0 0 -0 0 0 0 0 0 -0 -0 -0 -0 -0 -0 -0 0 0 0 0 0 0 0 0 0 0 0 0 0 0 0 0 0 0 0 0 0 -0 -0 0
0 0 0 0 0 -0 -0 0 0 -0 0 0 0 -0 -0 -0 -0 -0 -0 -0 0 0 0 0 0 0 0 0 0 0 0 0 0 0 0 0 0 0 0 0 -0 0 -0 -0
0 0 0 0 0 0 0 0 0 0 0 0 0 0 -0 -0 -0 -0 -0 0 0 0 0 0 0 0 0 0 0 0 0 0 0 0 0 0 0 0 0 0 0 0 0 0
0 0 0 0 0 -0 -0 0 0 0 0 0 0 0 -0 -0 0 0 0 0 0 0 0 0 -0 0 0 0 0 0 0 0 0 0 0 0 0 0 0 0 0 0 0 0
0 0 0 0 -0 0 0 0 0 0 0 0 0 0 0 -0 -0 0 0 0 0 0 0 0 0 0 0 0 0 0 0 0 0 0 0 0 0 0 0 0 0 0 0 0
0 0 0 0 0 0 -0 0 0 0 0 0 0 0 0 0 0 0 0 0 0 0 0 0 0 -0 0 0 0 0 0 0 0 0 0 0 0 0 0 0 0 0 0 0
0 0 0 0 0 0 0 -0 0 0 0 0 0 0 0 0 0 0 0 0 0 0 0 0 0 -0 -0 0 0 0 0 0 0 0 0 0 0 0 0 0 0 0 0 0
0 0 0 0 0 0 -0 0 0 0 -0 -0 -0 0 0 0 0 0 0 0 0 0 0 0 0 -0 -0 -0 0 0 0 0 0 0 0 0 0 0 0 0 0 0 0 0
0 0 0 0 0 0 0 0 0 0 -0 -0 -0 0 0 0 0 0 0 -0 0 0 0 0 0 0 -0 -0 0 0 0 0 0 0 0 0 0 0 0 0 0 0 0 0
0 0 0 0 0 0 0 0 0 0 0 0 -0 -0 0 0 -0 0 0 0 -0 0 0 0 0 0 0 0 0 0 0 0 0 0 0 0 0 0 0 0 0 0 0 0
0 0 0 0 0 0 0 0 0 0 0 0 0 -0 -0 -0 -0 -0 -0 0 0 0 0 0 0 0 0 0 0 0 0 0 0 0 0 0 0 0 0 0 0 0 0 0
0 0 0 0 0 0 0 0 0 0 0 0 0 0 -0 -0 -0 -0 -0 -0 -0 0 0 0 0 0 0 0 0 0 0 0 0 0 0 0 0 0 0 0 0 0 0 0
0 0 0 0 0 0 0 0 -0 -0 -0 0 0 0 -0 -0 -0 -0 -0 0 0 0 0 0 0 0 0 0 0 0 0 0 0 0 0 0 0 0 0 0 0 0 0 0
0 0 0 0 0 -0 -0 -0 -0 0 0 0 0 0 -0 -0 -0 -0 -0 0 0 0 0 0 0 0 0 0 0 0 0 0 0 0 0 0 0 0 0 0 0 0 0 0
0 0 0 0 0 -0 -0 -0 -0 0 0 0 0 0 -0 -0 -0 0 0 0 0 0 0 0 0 0 0 0 0 0 0 0 0 0 0 0 0 0 0 0 0 0 0 0
0 0 0 0 -0 -0 -0 0 0 0 -0 -0 -0 -0 -0 -0 -0 0 0 0 0 0 0 0 0 0 0 0 0 0 0 0 0 0 0 0 0 0 0 0 0 0 0 0
Wind_Speed_500mb
11 11 11 16 19 13 15 29 16 40 38 41 36 43 53 54 63 51 43 45 41 59 57 59 36 42 38 35 32 35 33 36 34 32 29 32 27 23 18 14 11 13 15 16
7 13 13 23 23 24 32 36 29 39 42 46 66 68 60 53 54 41 42 41 41 51 46 51 53 51 48 42 39 35 32 31 31 30 30 26 24 19 17 17 21 17 18 20
6 6 11 11 10 8 9 11 16 22 37 21 25 31 48 51 47 44 44 41 36 45 40 45 36 17 50 46 46 39 33 29 27 26 28 28 25 22 22 27 23 21 24 27
5 5 5 13 5 14 17 22 13 14 25 36 40 58 65 70 60 59 39 35 30 34 34 40 28 26 50 48 43 43 39 31 31 31 35 29 28 28 26 27 28 24 28 30
5 3 12 10 5 5 6 33 2 27 37 41 67 58 58 55 53 45 26 21 25 38 30 24 39 49 63 55 49 47 41 33 36 38 38 31 33 34 30 33 35 36 37 37
3 4 9 7 8 19 1 10 13 29 29 40 49 13 11 49 10 15 12 17 32 39 27 7 31 27 66 58 54 48 40 38 42 42 39 35 38 38 41 41 51 52 51 44
7 7 14 14 14 15 5 10 40 40 39 40 11 27 37 37 8 15 11 28 36 39 12 39 49 45 67 60 55 46 43 47 48 43 42 41 44 44 48 54 53 48 50 44
4 5 13 15 8 3 11 31 29 44 55 41 25 20 29 42 14 4 8 34 43 46 21 50 38 66 72 59 53 47 51 50 48 45 45 50 53 53 55 52 50 51 53 52
16 12 8 10 14 31 28 25 20 27 48 43 35 25 17 17 22 22 14 30 44 42 46 31 46 53 64 58 54 52 52 50 50 45 46 52 54 53 56 53 52 51 54 50
2 12 29 29 21 25 28 34 37 40 39 36 36 21 17 23 30 35 29 26 37 48 50 25 18 46 56 56 54 54 52 50 53 48 48 49 48 49 52 51 48 48 46 44
10 19 30 53 42 20 27 29 37 37 27 31 28 13 8 18 27 28 27 23 26 42 49 45 28 35 45 56 54 54 52 53 53 49 49 51 53 52 52 38 22 39 37 33
13 20 15 11 19 22 31 29 28 30 32 24 17 11 16 25 30 31 28 30 20 31 38 35 15 14 41 57 55 57 57 57 56 53 53 55 57 60 47 35 31 30 27 31
14 17 26 29 31 35 35 24 27 33 26 27 20 14 18 27 33 35 29 29 25 28 35 41 11 13 27 52 55 54 58 59 58 54 55 56 56 57 51 45 40 31 30 32
34 32 37 39 36 17 16 17 27 23 17 19 23 20 25 27 31 30 32 32 29 27 28 25 31 10 25 45 51 53 53 55 55 55 55 53 55 52 48 50 56 50 35 33
38 37 45 51 46 31 21 15 21 15 14 11 16 21 23 26 27 26 28 31 27 26 23 24 20 27 10 29 45 51 53 56 54 55 54 49 50 47 46 49 52 52 50 43
11 7 17 34 26 16 19 18 18 14 15 16 16 17 19 22 20 19 18 25 23 26 22 21 18 22 28 12 42 49 51 51 52 54 55 53 49 46 45 48 53 53 52 51
39 41 35 33 29 23 16 21 23 20 22 22 25 26 24 24 23 22 20 20 17 17 19 14 13 9 19 18 27 46 50 51 51 52 48 49 52 50 46 47 50 51 49 46
50 52 51 46 34 28 25 32 29 26 24 25 27 27 27 27 28 29 28 25 19 12 14 15 8 6 8 14 3 40 47 49 50 50 45 41 44 48 46 45 46 48 48 45
36 37 41 49 46 45 42 35 32 28 27 27 27 27 26 25 25 30 31 29 23 19 7 9 11 5 1 6 7 15 38 49 50 49 45 40 41 44 44 43 45 46 47 46
25 21 18 21 27 23 21 24 28 30 30 27 26 26 27 30 30 31 33 35 29 25 19 9 4 3 3 5 9 12 16 37 48 50 48 43 39 40 43 43 43 45 46 44
17 16 12 15 18 19 20 24 29 35 32 28 26 28 32 33 35 38 45 46 36 27 25 19 13 10 6 8 14 17 19 20 35 47 49 48 44 39 40 44 45 46 46 44
20 15 15 17 18 21 23 27 32 34 34 31 28 29 32 36 41 47 47 48 41 32 30 26 21 18 15 14 15 20 21 22 21 34 46 50 48 45 39 42 47 48 47 44
13 12 16 20 22 24 26 30 32 33 35 33 30 26 28 31 37 47 54 45 33 31 34 35 26 25 24 23 21 18 23 29 27 28 36 44 49 49 43 38 42 48 49 47
15 21 25 24 25 27 30 27 28 29 32 32 29 31 33 33 38 41 45 39 32 31 38 40 36 31 31 31 30 26 25 29 33 27 31 37 43 50 50 44 39 43 47 46
27 26 25 24 26 28 28 26 26 28 30 30 30 35 42 42 43 40 38 39 36 36 43 48 44 39 41 39 38 35 31 32 33 34 30 38 43 46 55 52 46 40 43 47
29 26 24 25 24 24 23 23 27 24 26 31 35 38 42 37 39 38 33 39 40 35 42 47 50 48 50 47 45 42 36 35 36 38 39 31 43 47 52 57 52 47 42 45
23 27 30 30 26 25 23 23 25 27 27 31 39 40 40 41 43 38 36 37 39 34 37 43 49 55 56 53 50 46 39 35 35 36 35 38 36 48 53 59 58 52 47 45
Wind_Direction_500mb
231 236 240 256 248 221 201 238 225 269 268 276 271 273 280 283 286 292 296 301 310 323 311 323 305 214 203 202 190 180 183 183 186 186 202 216 209 202 193 184 196 176 171 183
283 248 253 273 268 251 258 268 266 262 267 267 270 272 272 266 274 273 281 289 305 310 294 314 340 218 195 195 191 186 189 200 197 197 202 189 177 164 163 158 147 137 144 163
283 328 279 296 256 216 251 216 246 276 288 304 295 280 274 277 278 279 272 263 281 301 297 298 321 282 203 192 190 188 185 187 192 193 186 169 160 158 158 157 144 139 131 142
231 341 357 246 246 236 241 266 295 302 313 290 290 289 284 282 271 271 266 251 282 295 271 288 302 335 211 195 187 181 179 183 182 174 174 162 162 166 157 153 146 143 141 138
127 211 286 283 113 309 322 304 93 335 305 303 299 293 280 284 266 263 235 257 285 306 264 273 258 317 203 188 186 182 181 183 177 179 177 163 164 156 149 147 141 138 139 139
125 160 254 244 273 307 290 282 342 326 319 332 338 350 319 331 279 204 233 316 331 333 265 189 309 251 187 184 183 182 180 177 178 180 173 165 163 155 148 144 136 131 125 124
223 252 275 241 275 336 66 265 327 315 319 325 347 333 351 15 325 277 271 336 336 337 309 278 290 207 184 180 181 180 180 176 178 177 172 165 160 151 145 144 139 134 129 127
142 207 269 197 16 136 244 306 305 315 321 325 310 359 27 25 2 336 357 352 347 338 288 281 283 184 185 176 176 178 172 176 172 172 169 164 160 152 150 150 146 139 135 128
176 214 248 201 287 306 312 291 313 315 330 335 330 309 2 15 31 26 1 352 347 337 340 307 169 188 176 175 173 171 170 168 168 166 168 171 164 161 157 156 152 150 145 137
155 248 249 258 308 299 310 308 311 322 324 341 324 308 331 12 20 18 11 358 344 341 348 348 207 179 182 172 171 169 168 168 165 165 166 167 166 166 162 158 155 153 152 150
263 280 271 270 281 289 319 310 310 319 323 341 342 319 331 6 5 4 4 358 351 351 343 342 187 200 191 173 172 168 167 166 165 166 167 164 161 157 153 142 140 166 163 164
221 233 220 266 269 293 313 302 313 326 328 338 353 31 7 353 358 3 3 3 5 356 352 356 213 200 183 177 173 171 165 166 167 167 166 164 161 157 154 136 140 151 156 154
224 247 256 263 282 294 292 287 314 319 301 315 334 331 344 347 353 0 4 15 13 1 357 353 156 238 200 180 175 175 168 168 169 169 168 167 166 160 154 147 145 146 153 153
247 262 270 262 280 302 258 294 329 323 300 288 303 309 320 334 339 356 6 10 5 4 9 17 13 320 200 189 175 176 174 172 171 169 170 169 170 169 166 164 155 153 160 157
253 244 257 277 279 270 247 288 340 346 5 332 300 311 315 323 332 350 357 358 5 10 13 28 25 15 7 194 177 177 177 176 173 169 169 176 173 172 170 173 166 162 159 160
242 258 256 252 253 245 247 267 306 326 340 342 343 342 342 337 334 347 358 359 2 14 13 21 44 25 16 208 186 178 181 178 174 171 171 176 177 178 175 177 173 170 167 165
255 251 249 244 251 235 265 281 284 302 320 318 312 312 316 320 322 324 332 341 353 7 12 11 21 85 55 8 196 183 183 180 178 176 175 180 186 185 182 182 179 176 174 174
253 254 253 257 267 244 280 282 273 279 297 309 308 309 310 305 309 313 316 321 325 333 21 17 2 43 129 58 252 194 187 183 182 181 180 181 183 183 183 184 183 180 178 177
257 255 250 247 246 253 266 261 255 271 285 299 299 298 298 308 309 304 304 304 307 310 341 25 15 330 68 115 341 214 198 189 187 187 188 184 182 185 185 186 186 185 186 183
225 227 232 238 240 231 213 232 256 271 285 292 290 286 284 292 294 303 302 300 298 287 289 293 298 352 243 183 228 240 210 199 194 191 192 192 188 188 191 192 191 192 192 190
154 155 165 187 206 223 236 249 265 276 284 285 283 281 285 291 290 295 299 298 293 281 270 269 247 226 236 211 208 237 233 207 206 200 197 197 197 196 197 198 197 198 197 194
167 186 199 218 235 253 264 269 273 276 280 279 279 282 286 289 292 294 293 289 288 275 254 246 235 219 229 231 207 224 233 229 220 211 204 205 202 201 202 204 204 202 201 199
185 215 241 257 268 275 275 273 273 273 272 274 275 274 287 293 295 296 296 292 281 270 251 241 232 217 218 230 224 214 231 228 228 224 214 209 208 206 206 208 208 206 203 201
251 257 263 264 268 272 275 278 274 269 268 267 265 264 286 297 294 294 290 290 273 258 241 232 229 220 217 225 227 230 228 233 226 224 223 214 211 209 208 209 210 209 205 204
258 264 259 262 270 276 278 274 264 263 265 263 265 271 275 279 289 293 284 275 271 257 246 234 225 216 217 222 224 229 230 234 230 224 226 223 215 210 207 211 212 212 208 206
251 252 253 268 274 278 266 258 262 265 265 267 277 285 292 287 284 269 276 267 268 262 247 233 223 216 217 218 221 225 231 233 230 224 226 229 220 213 208 209 212 212 210 208
257 253 256 269 266 267 255 258 259 263 269 275 283 288 294 287 278 262 262 259 257 258 238 230 220 213 217 218 219 221 227 232 228 227 223 224 227 217 211 207 211 213 211 208
Wind_Speed_850mb
11 11 11 16 19 13 15 29 16 40 38 41 36 43 53 54 63 51 43 45 41 59 57 59 36 42 38 35 32 35 33 36 34 32 29 32 27 23 18 14 11 13 15 16
7 13 13 23 23 24 32 36 29 39 42 46 66 68 60 53 54 41 42 41 41 51 46 51 53 51 48 42 39 35 32 31 31 30 30 26 24 19 17 17 21 17 18 20
6 6 11 11 10 8 9 11 16 22 37 21 25 31 48 51 47 44 44 41 36 45 40 45 36 17 50 46 46 39 33 29 27 26 28 28 25 22 22 27 23 21 24 27
5 5 5 13 5 14 17 22 13 14 25 36 40 58 65 70 60 59 39 35 30 34 34 40 28 26 50 48 43 43 39 31 31 31 35 29 28 28 26 27 28 24 28 30
5 3 12 10 5 5 6 33 2 27 37 41 67 58 58 55 53 45 26 21 25 38 30 24 39 49 63 55 49 47 41 33 36 38 38 31 33 34 30 33 35 36 37 37
3 4 9 7 8 19 1 10 13 29 29 40 49 13 11 49 10 15 12 17 32 39 27 7 31 27 66 58 54 48 40 38 42 42 39 35 38 38 41 41 51 52 51 44
7 7 14 14 14 15 5 10 40 40 39 40 11 27 37 37 8 15 11 28 36 39 12 39 49 45 67 60 55 46 43 47 48 43 42 41 44 44 48 54 53 48 50 44
4 5 13 15 8 3 11 31 29 44 55 41 25 20 29 42 14 4 8 34 43 46 21 50 38 66 72 59 53 47 51 50 48 45 45 50 53 53 55 52 50 51 53 52
16 12 8 10 14 31 28 25 20 27 48 43 35 25 17 17 22 22 14 30 44 42 46 31 46 53 64 58 54 52 52 50 50 45 46 52 54 53 56 53 52 51 54 50
2 12 29 29 21 25 28 34 37 40 39 36 36 21 17 23 30 35 29 26 37 48 50 25 18 46 56 56 54 54 52 50 53 48 48 49 48 49 52 51 48 48 46 44
10 19 30 53 42 20 27 29 37 37 27 31 28 13 8 18 27 28 27 23 26 42 49 45 28 35 45 56 54 54 52 53 53 49 49 51 53 52 52 38 22 39 37 33
13 20 15 11 19 22 31 29 28 30 32 24 17 11 16 25 30 31 28 30 20 31 38 35 15 14 41 57 55 57 57 57 56 53 53 55 57 60 47 35 31 30 27 31
14 17 26 29 31 35 35 24 27 33 26 27 20 14 18 27 33 35 29 29 25 28 35 41 11 13 27 52 55 54 58 59 58 54 55 56 56 57 51 45 40 31 30 32
34 32 37 39 36 17 16 17 27 23 17 19 23 20 25 27 31 30 32 32 29 27 28 25 31 10 25 45 51 53 53 55 55 55 55 53 55 52 48 50 56 50 35 33
38 37 45 51 46 31 21 15 21 15 14 11 16 21 23 26 27 26 28 31 27 26 23 24 20 27 10 29 45 51 53 56 54 55 54 49 50 47 46 49 52 52 50 43
11 7 17 34 26 16 19 18 18 14 15 16 16 17 19 22 20 19 18 25 23 26 22 21 18 22 28 12 42 49 51 51 52 54 55 53 49 46 45 48 53 53 52 51
39 41 35 33 29 23 16 21 23 20 22 22 25 26 24 24 23 22 20 20 17 17 19 14 13 9 19 18 27 46 50 51 51 52 48 49 52 50 46 47 50 51 49 46
50 52 51 46 34 28 25 32 29 26 24 25 27 27 27 27 28 29 28 25 19 12 14 15 8 6 8 14 3 40 47 49 50 50 45 41 44 48 46 45 46 48 48 45
36 37 41 49 46 45 42 35 32 28 27 27 27 27 26 25 25 30 31 29 23 19 7 9 11 5 1 6 7 15 38 49 50 49 45 40 41 44 44 43 45 46 47 46
25 21 18 21 27 23 21 24 28 30 30 27 26 26 27 30 30 31 33 35 29 25 19 9 4 3 3 5 9 12 16 37 48 50 48 43 39 40 43 43 43 45 46 44
17 16 12 15 18 19 20 24 29 35 32 28 26 28 32 33 35 38 45 46 36 27 25 19 13 10 6 8 14 17 19 20 35 47 49 48 44 39 40 44 45 46 46 44
20 15 15 17 18 21 23 27 32 34 34 31 28 29 32 36 41 47 47 48 41 32 30 26 21 18 15 14 15 20 21 22 21 34 46 50 48 45 39 42 47 48 47 44
13 12 16 20 22 24 26 30 32 33 35 33 30 26 28 31 37 47 54 45 33 31 34 35 26 25 24 23 21 18 23 29 27 28 36 44 49 49 43 38 42 48 49 47
15 21 25 24 25 27 30 27 28 29 32 32 29 31 33 33 38 41 45 39 32 31 38 40 36 31 31 31 30 26 25 29 33 27 31 37 43 50 50 44 39 43 47 46
27 26 25 24 26 28 28 26 26 28 30 30 30 35 42 42 43 40 38 39 36 36 43 48 44 39 41 39 38 35 31 32 33 34 30 38 43 46 55 52 46 40 43 47
29 26 24 25 24 24 23 23 27 24 26 31 35 38 42 37 39 38 33 39 40 35 42 47 50 48 50 47 45 42 36 35 36 38 39 31 43 47 52 57 52 47 42 45
23 27 30 30 26 25 23 23 25 27 27 31 39 40 40 41 43 38 36 37 39 34 37 43 49 55 56 53 50 46 39 35 35 36 35 38 36 48 53 59 58 52 47 45
Wind_Direction_850mb
231 236 240 256 248 221 201 238 225 269 268 276 271 273 280 283 286 292 296 301 310 323 311 323 305 214 203 202 190 180 183 183 186 186 202 216 209 202 193 184 196 176 171 183
283 248 253 273 268 251 258 268 266 262 267 267 270 272 272 266 274 273 281 289 305 310 294 314 340 218 195 195 191 186 189 200 197 197 202 189 177 164 163 158 147 137 144 163
283 328 279 296 256 216 251 216 246 276 288 304 295 280 274 277 278 279 272 263 281 301 297 298 321 282 203 192 190 188 185 187 192 193 186 169 160 158 158 157 144 139 131 142
231 341 357 246 246 236 241 266 295 302 313 290 290 289 284 282 271 271 266 251 282 295 271 288 302 335 211 195 187 181 179 183 182 174 174 162 162 166 157 153 146 143 141 138
127 211 286 283 113 309 322 304 93 335 305 303 299 293 280 284 266 263 235 257 285 306 264 273 258 317 203 188 186 182 181 183 177 179 177 163 164 156 149 147 141 138 139 139
125 160 254 244 273 307 290 282 342 326 319 332 338 350 319 331 279 204 233 316 331 333 265 189 309 251 187 184 183 182 180 177 178 180 173 165 163 155 148 144 136 131 125 124
223 252 275 241 275 336 66 265 327 315 319 325 347 333 351 15 325 277 271 336 336 337 309 278 290 207 184 180 181 180 180 176 178 177 172 165 160 151 145 144 139 134 129 127
142 207 269 197 16 136 244 306 305 315 321 325 310 359 27 25 2 336 357 352 347 338 288 281 283 184 185 176 176 178 172 176 172 172 169 164 160 152 150 150 146 139 135 128
176 214 248 201 287 306 312 291 313 315 330 335 330 309 2 15 31 26 1 352 347 337 340 307 169 188 176 175 173 171 170 168 168 166 168 171 164 161 157 156 152 150 145 137
155 248 249 258 308 299 310 308 311 322 324 341 324 308 331 12 20 18 11 358 344 341 348 348 207 179 182 172 171 169 168 168 165 165 166 167 166 166 162 158 155 153 152 150
263 280 271 270 281 289 319 310 310 319 323 341 342 319 331 6 5 4 4 358 351 351 343 342 187 200 191 173 172 168 167 166 165 166 167 164 161 157 153 142 140 166 163 164
221 233 220 266 269 293 313 302 313 326 328 338 353 31 7 353 358 3 3 3 5 356 352 356 213 200 183 177 173 171 165 166 167 167 166 164 161 157 154 136 140 151 156 154
224 247 256 263 282 294 292 287 314 319 301 315 334 331 344 347 353 0 4 15 13 1 357 353 156 238 200 180 175 175 168 168 169 169 168 167 166 160 154 147 145 146 153 153
247 262 270 262 280 302 258 294 329 323 300 288 303 309 320 334 339 356 6 10 5 4 9 17 13 320 200 189 175 176 174 172 171 169 170 169 170 169 166 164 155 153 160 157
253 244 257 277 279 270 247 288 340 346 5 332 300 311 315 323 332 350 357 358 5 10 13 28 25 15 7 194 177 177 177 176 173 169 169 176 173 172 170 173 166 162 159 160
242 258 256 252 253 245 247 267 306 326 340 342 343 342 342 337 334 347 358 359 2 14 13 21 44 25 16 208 186 178 181 178 174 171 171 176 177 178 175 177 173 170 167 165
255 251 249 244 251 235 265 281 284 302 320 318 312 312 316 320 322 324 332 341 353 7 12 11 21 85 55 8 196 183 183 180 178 176 175 180 186 185 182 182 179 176 174 174
253 254 253 257 267 244 280 282 273 279 297 309 308 309 310 305 309 313 316 321 325 333 21 17 2 43 129 58 252 194 187 183 182 181 180 181 183 183 183 184 183 180 178 177
257 255 250 247 246 253 266 261 255 271 285 299 299 298 298 308 309 304 304 304 307 310 341 25 15 330 68 115 341 214 198 189 187 187 188 184 182 185 185 186 186 185 186 183
225 227 232 238 240 231 213 232 256 271 285 292 290 286 284 292 294 303 302 300 298 287 289 293 298 352 243 183 228 240 210 199 194 191 192 192 188 188 191 192 191 192 192 190
154 155 165 187 206 223 236 249 265 276 284 285 283 281 285 291 290 295 299 298 293 281 270 269 247 226 236 211 208 237 233 207 206 200 197 197 197 196 197 198 197 198 197 194
167 186 199 218 235 253 264 269 273 276 280 279 279 282 286 289 292 294 293 289 288 275 254 246 235 219 229 231 207 224 233 229 220 211 204 205 202 201 202 204 204 202 201 199
185 215 241 257 268 275 275 273 273 273 272 274 275 274 287 293 295 296 296 292 281 270 251 241 232 217 218 230 224 214 231 228 228 224 214 209 208 206 206 208 208 206 203 201
251 257 263 264 268 272 275 278 274 269 268 267 265 264 286 297 294 294 290 290 273 258 241 232 229 220 217 225 227 230 228 233 226 224 223 214 211 209 208 209 210 209 205 204
258 264 259 262 270 276 278 274 264 263 265 263 265 271 275 279 289 293 284 275 271 257 246 234 225 216 217 222 224 229 230 234 230 224 226 223 215 210 207 211 212 212 208 206
251 252 253 268 274 278 266 258 262 265 265 267 277 285 292 287 284 269 276 267 268 262 247 233 223 216 217 218 221 225 231 233 230 224 226 229 220 213 208 209 212 212 210 208
257 253 256 269 266 267 255 258 259 263 269 275 283 288 294 287 278 262 262 259 257 258 238 230 220 213 217 218 219 221 227 232 228 227 223 224 227 217 211 207 211 213 211 208